Time,TemperatureF,DewpointF,PressureIn,WindDirection,WindDirectionDegrees,WindSpeedMPH,WindSpeedGustMPH,Humidity,HourlyPrecipIn,Conditions,Clouds,dailyrainin,SoftwareType,DateUTC
2013-07-20 00:02:00,74.2,72.4,29.97,NNW,338,0.0,0.0,94,0.00,,---,0.00,VWS V14.01,2013-07-20 05:02:00,
2013-07-20 00:07:00,74.2,72.4,29.97,NNW,338,0.0,0.0,94,0.00,,---,0.00,VWS V14.01,2013-07-20 05:07:00,
2013-07-20 00:12:00,74.0,72.2,29.97,NNW,338,0.0,0.0,94,0.00,,---,0.00,VWS V14.01,2013-07-20 05:12:00,
2013-07-20 00:17:00,73.9,72.0,29.94,NNW,338,0.0,0.0,94,0.00,,---,0.00,VWS V14.01,2013-07-20 05:17:00,
2013-07-20 00:22:00,73.9,72.0,29.94,NNW,338,0.0,0.0,94,0.00,,---,0.00,VWS V14.01,2013-07-20 05:22:00,
2013-07-20 00:27:00,73.9,72.0,29.94,NNW,338,0.0,0.0,94,0.00,,---,0.00,VWS V14.01,2013-07-20 05:27:00,
2013-07-20 00:32:00,73.7,71.8,29.94,NNW,338,0.0,0.0,94,0.00,,---,0.00,VWS V14.01,2013-07-20 05:32:00,
2013-07-20 00:37:00,73.7,71.8,29.94,NNW,338,0.0,0.0,94,0.00,,---,0.00,VWS V14.01,2013-07-20 05:37:00,
2013-07-20 00:42:00,73.5,71.7,29.94,NNW,338,0.0,0.0,94,0.00,,---,0.00,VWS V14.01,2013-07-20 05:42:00,
2013-07-20 00:47:00,73.5,71.7,29.94,NNW,338,0.0,0.0,94,0.00,,---,0.00,VWS V14.01,2013-07-20 05:47:00,
2013-07-20 00:52:00,73.5,71.7,29.94,NNW,338,0.0,0.0,94,0.00,,---,0.00,VWS V14.01,2013-07-20 05:52:00,
2013-07-20 00:57:00,73.3,71.5,29.94,NNW,338,0.0,0.0,94,0.00,,---,0.00,VWS V14.01,2013-07-20 05:57:00,
2013-07-20 01:02:00,73.3,71.5,29.94,NE,45,0.0,0.0,94,0.00,,---,0.00,VWS V14.01,2013-07-20 06:02:00,
2013-07-20 01:07:00,73.1,71.3,29.94,NE,45,0.0,0.0,94,0.00,,---,0.00,VWS V14.01,2013-07-20 06:07:00,
2013-07-20 01:12:00,73.1,71.3,29.94,ENE,68,0.0,0.0,94,0.00,,---,0.00,VWS V14.01,2013-07-20 06:12:00,
2013-07-20 01:17:00,73.1,71.6,29.94,East,90,0.0,0.0,95,0.00,,---,0.00,VWS V14.01,2013-07-20 06:17:00,
2013-07-20 01:22:00,73.1,71.6,29.94,East,90,0.0,0.0,95,0.00,,---,0.00,VWS V14.01,2013-07-20 06:22:00,
2013-07-20 01:27:00,73.1,71.6,29.94,East,90,0.0,0.0,95,0.00,,---,0.00,VWS V14.01,2013-07-20 06:27:00,
2013-07-20 01:32:00,73.0,71.4,29.94,East,90,0.0,0.0,95,0.00,,---,0.00,VWS V14.01,2013-07-20 06:32:00,
2013-07-20 01:37:00,73.0,71.4,29.94,East,90,0.0,0.0,95,0.00,,---,0.00,VWS V14.01,2013-07-20 06:37:00,
2013-07-20 01:42:00,73.0,71.4,29.94,East,90,0.0,0.0,95,0.00,,---,0.00,VWS V14.01,2013-07-20 06:42:00,
2013-07-20 01:47:00,72.8,71.3,29.97,East,90,0.0,0.0,95,0.00,,---,0.00,VWS V14.01,2013-07-20 06:47:00,
2013-07-20 01:52:00,72.8,71.3,29.97,East,90,0.0,0.0,95,0.00,,---,0.00,VWS V14.01,2013-07-20 06:52:00,
2013-07-20 01:57:00,72.8,71.3,29.97,WNW,292,0.0,0.0,95,0.00,,---,0.00,VWS V14.01,2013-07-20 06:57:00,
2013-07-20 02:02:00,72.6,71.1,29.94,WNW,292,0.0,0.0,95,0.00,,---,0.00,VWS V14.01,2013-07-20 07:02:00,
2013-07-20 02:08:00,72.6,71.1,29.94,WNW,292,0.0,0.0,95,0.00,,---,0.00,VWS V14.01,2013-07-20 07:08:00,
2013-07-20 02:13:00,72.6,71.1,29.94,WNW,292,0.0,0.0,95,0.00,,---,0.00,VWS V14.01,2013-07-20 07:13:00,
2013-07-20 02:18:00,72.4,70.9,29.94,WNW,292,0.0,0.0,95,0.00,,---,0.00,VWS V14.01,2013-07-20 07:18:00,
2013-07-20 02:23:00,72.4,70.9,29.94,WNW,292,0.0,0.0,95,0.00,,---,0.00,VWS V14.01,2013-07-20 07:23:00,
2013-07-20 02:28:00,72.2,70.7,29.94,WNW,292,0.0,0.0,95,0.00,,---,0.00,VWS V14.01,2013-07-20 07:28:00,
2013-07-20 02:33:00,72.2,70.7,29.94,WNW,292,0.0,0.0,95,0.00,,---,0.00,VWS V14.01,2013-07-20 07:33:00,
2013-07-20 02:38:00,72.1,70.6,29.94,WNW,292,0.0,0.0,95,0.00,,---,0.00,VWS V14.01,2013-07-20 07:38:00,
2013-07-20 02:43:00,72.1,70.6,29.94,SE,135,0.0,0.0,95,0.00,,---,0.00,VWS V14.01,2013-07-20 07:43:00,
2013-07-20 02:48:00,72.1,70.6,29.94,SE,135,0.0,0.0,95,0.00,,---,0.00,VWS V14.01,2013-07-20 07:48:00,
2013-07-20 02:53:00,71.9,70.4,29.94,SE,135,0.0,0.0,95,0.00,,---,0.00,VWS V14.01,2013-07-20 07:53:00,
2013-07-20 02:58:00,71.9,70.4,29.94,SSE,158,0.0,0.0,95,0.00,,---,0.00,VWS V14.01,2013-07-20 07:58:00,
2013-07-20 03:03:00,71.7,70.2,29.94,WSW,248,0.0,0.0,95,0.00,,---,0.00,VWS V14.01,2013-07-20 08:03:00,
2013-07-20 03:08:00,71.5,70.0,29.94,WSW,248,0.0,0.0,95,0.00,,---,0.00,VWS V14.01,2013-07-20 08:08:00,
2013-07-20 03:13:00,71.3,69.8,29.94,West,270,0.0,0.0,95,0.00,,---,0.00,VWS V14.01,2013-07-20 08:13:00,
2013-07-20 03:18:00,71.3,69.8,29.94,West,270,0.0,0.0,95,0.00,,---,0.00,VWS V14.01,2013-07-20 08:18:00,
2013-07-20 03:23:00,71.3,69.8,29.94,West,270,0.0,0.0,95,0.00,,---,0.00,VWS V14.01,2013-07-20 08:23:00,
2013-07-20 03:28:00,71.3,69.8,29.94,West,270,0.0,0.0,95,0.00,,---,0.00,VWS V14.01,2013-07-20 08:28:00,
2013-07-20 03:33:00,71.3,69.8,29.94,SSW,202,0.0,0.0,95,0.00,,---,0.00,VWS V14.01,2013-07-20 08:33:00,
2013-07-20 03:38:00,71.3,70.1,29.94,SSW,202,0.0,0.0,96,0.00,,---,0.00,VWS V14.01,2013-07-20 08:38:00,
2013-07-20 03:43:00,71.3,69.8,29.94,SSW,202,0.0,0.0,95,0.00,,---,0.00,VWS V14.01,2013-07-20 08:43:00,
2013-07-20 03:48:00,71.2,69.7,29.94,SSW,202,0.0,0.0,95,0.00,,---,0.00,VWS V14.01,2013-07-20 08:48:00,
2013-07-20 03:53:00,71.2,69.7,29.94,SSW,202,0.0,0.0,95,0.00,,---,0.00,VWS V14.01,2013-07-20 08:53:00,
2013-07-20 03:58:00,71.2,69.7,29.94,SSW,202,0.0,0.0,95,0.00,,---,0.00,VWS V14.01,2013-07-20 08:58:00,
2013-07-20 04:03:00,71.2,69.7,29.94,SSW,202,0.0,0.0,95,0.00,,---,0.00,VWS V14.01,2013-07-20 09:03:00,
2013-07-20 04:08:00,71.0,69.5,29.94,SSW,202,0.0,0.0,95,0.00,,---,0.00,VWS V14.01,2013-07-20 09:08:00,
2013-07-20 04:13:00,71.0,69.5,29.94,SSW,202,0.0,0.0,95,0.00,,---,0.00,VWS V14.01,2013-07-20 09:13:00,
2013-07-20 04:18:00,70.8,69.3,29.94,SSW,202,0.0,0.0,95,0.00,,---,0.00,VWS V14.01,2013-07-20 09:18:00,
2013-07-20 04:23:00,70.8,69.6,29.94,SSW,202,0.0,0.0,96,0.00,,---,0.00,VWS V14.01,2013-07-20 09:23:00,
2013-07-20 04:28:00,70.8,69.6,29.94,SSW,202,0.0,0.0,96,0.00,,---,0.00,VWS V14.01,2013-07-20 09:28:00,
2013-07-20 04:33:00,70.8,69.6,29.94,SSW,202,0.0,0.0,96,0.00,,---,0.00,VWS V14.01,2013-07-20 09:33:00,
2013-07-20 04:38:00,70.8,69.6,29.94,SSW,202,0.0,0.0,96,0.00,,---,0.00,VWS V14.01,2013-07-20 09:38:00,
2013-07-20 04:43:00,70.8,69.6,29.94,SSW,202,0.0,0.0,96,0.00,,---,0.00,VWS V14.01,2013-07-20 09:43:00,
2013-07-20 04:48:00,70.6,69.4,29.94,West,270,0.0,0.0,96,0.00,,---,0.00,VWS V14.01,2013-07-20 09:48:00,
2013-07-20 04:53:00,70.3,68.8,29.94,WNW,292,0.0,0.0,95,0.00,,---,0.00,VWS V14.01,2013-07-20 09:53:00,
2013-07-20 04:58:00,70.3,68.8,29.94,WNW,292,0.0,0.0,95,0.00,,---,0.00,VWS V14.01,2013-07-20 09:58:00,
2013-07-20 05:03:00,70.3,69.1,29.94,WNW,292,0.0,0.0,96,0.00,,---,0.00,VWS V14.01,2013-07-20 10:03:00,
2013-07-20 05:08:00,70.3,69.1,29.94,WSW,248,0.0,0.0,96,0.00,,---,0.00,VWS V14.01,2013-07-20 10:08:00,
2013-07-20 05:14:00,70.3,69.1,29.94,WSW,248,0.0,0.0,96,0.00,,---,0.00,VWS V14.01,2013-07-20 10:14:00,
2013-07-20 05:19:00,70.3,69.1,29.94,WSW,248,0.0,0.0,96,0.00,,---,0.00,VWS V14.01,2013-07-20 10:19:00,
2013-07-20 05:24:00,70.3,69.1,29.94,WSW,248,0.0,0.0,96,0.00,,---,0.00,VWS V14.01,2013-07-20 10:24:00,
2013-07-20 05:29:00,70.1,68.9,29.97,WSW,248,0.0,0.0,96,0.00,,---,0.00,VWS V14.01,2013-07-20 10:29:00,
2013-07-20 05:34:00,70.1,68.9,29.97,WSW,248,0.0,0.0,96,0.00,,---,0.00,VWS V14.01,2013-07-20 10:34:00,
2013-07-20 05:39:00,70.1,68.9,29.97,WSW,248,0.0,0.0,96,0.00,,---,0.00,VWS V14.01,2013-07-20 10:39:00,
2013-07-20 05:44:00,70.1,68.9,29.97,WSW,248,0.0,0.0,96,0.00,,---,0.00,VWS V14.01,2013-07-20 10:44:00,
2013-07-20 05:49:00,70.1,68.9,29.97,WSW,248,0.0,0.0,96,0.00,,---,0.00,VWS V14.01,2013-07-20 10:49:00,
2013-07-20 05:54:00,69.9,68.7,29.97,WSW,248,0.0,0.0,96,0.00,,---,0.00,VWS V14.01,2013-07-20 10:54:00,
2013-07-20 05:59:00,69.9,68.7,29.97,WSW,248,0.0,0.0,96,0.00,,---,0.00,VWS V14.01,2013-07-20 10:59:00,
2013-07-20 06:04:00,69.9,68.7,29.97,WSW,248,0.0,0.0,96,0.00,,---,0.00,VWS V14.01,2013-07-20 11:04:00,
2013-07-20 06:09:00,69.7,68.5,29.97,WSW,248,0.0,0.0,96,0.00,,---,0.00,VWS V14.01,2013-07-20 11:09:00,
2013-07-20 06:14:00,69.5,68.1,29.97,WSW,248,0.0,0.0,95,0.00,,---,0.00,VWS V14.01,2013-07-20 11:14:00,
2013-07-20 06:19:00,69.5,68.3,29.97,WSW,248,0.0,0.0,96,0.00,,---,0.00,VWS V14.01,2013-07-20 11:19:00,
2013-07-20 06:24:00,69.5,68.3,29.97,WSW,248,0.0,0.0,96,0.00,,---,0.00,VWS V14.01,2013-07-20 11:24:00,
2013-07-20 06:29:00,69.5,68.3,29.97,WSW,248,0.0,0.0,96,0.00,,---,0.00,VWS V14.01,2013-07-20 11:29:00,
2013-07-20 06:34:00,69.5,68.3,29.97,WSW,248,0.0,0.0,96,0.00,,---,0.00,VWS V14.01,2013-07-20 11:34:00,
2013-07-20 06:39:00,69.7,68.5,29.97,WSW,248,0.0,0.0,96,0.00,,---,0.00,VWS V14.01,2013-07-20 11:39:00,
2013-07-20 06:44:00,69.7,68.5,29.97,WSW,248,0.0,0.0,96,0.00,,---,0.00,VWS V14.01,2013-07-20 11:44:00,
2013-07-20 06:49:00,69.7,68.5,29.97,WSW,248,0.0,0.0,96,0.00,,---,0.00,VWS V14.01,2013-07-20 11:49:00,
2013-07-20 06:54:00,69.7,68.5,29.97,WSW,248,0.0,0.0,96,0.00,,---,0.00,VWS V14.01,2013-07-20 11:54:00,
2013-07-20 06:59:00,69.9,68.7,29.97,WSW,248,0.0,0.0,96,0.00,,---,0.00,VWS V14.01,2013-07-20 11:59:00,
2013-07-20 07:04:00,69.9,68.7,29.97,WSW,248,0.0,0.0,96,0.00,,---,0.00,VWS V14.01,2013-07-20 12:04:00,
2013-07-20 07:09:00,70.1,68.9,29.97,WSW,248,0.0,0.0,96,0.00,,---,0.00,VWS V14.01,2013-07-20 12:09:00,
2013-07-20 07:14:00,70.3,69.1,29.97,WSW,248,0.0,0.0,96,0.00,,---,0.00,VWS V14.01,2013-07-20 12:14:00,
2013-07-20 07:19:00,70.3,69.1,29.97,WSW,248,0.0,0.0,96,0.00,,---,0.00,VWS V14.01,2013-07-20 12:19:00,
2013-07-20 07:24:00,70.4,69.2,29.97,WSW,248,0.0,0.0,96,0.00,,---,0.00,VWS V14.01,2013-07-20 12:24:00,
2013-07-20 07:29:00,70.4,69.2,29.97,WSW,248,0.0,0.0,96,0.00,,---,0.00,VWS V14.01,2013-07-20 12:29:00,
2013-07-20 07:34:00,70.6,69.7,29.97,WSW,248,0.0,0.0,97,0.00,,---,0.00,VWS V14.01,2013-07-20 12:34:00,
2013-07-20 07:39:00,70.8,69.6,29.97,WSW,248,0.0,0.0,96,0.00,,---,0.00,VWS V14.01,2013-07-20 12:39:00,
2013-07-20 07:44:00,71.0,69.8,29.97,WSW,248,0.0,0.0,96,0.00,,---,0.00,VWS V14.01,2013-07-20 12:44:00,
2013-07-20 07:49:00,71.3,70.1,29.97,WSW,248,0.0,0.0,96,0.00,,---,0.00,VWS V14.01,2013-07-20 12:49:00,
2013-07-20 07:54:00,71.7,70.5,29.97,WSW,248,0.0,0.0,96,0.00,,---,0.00,VWS V14.01,2013-07-20 12:54:00,
2013-07-20 07:59:00,71.9,71.0,29.97,WSW,248,0.0,0.0,97,0.00,,---,0.00,VWS V14.01,2013-07-20 12:59:00,
2013-07-20 08:04:00,72.2,71.3,29.97,WSW,248,0.0,0.0,97,0.00,,---,0.00,VWS V14.01,2013-07-20 13:04:00,
2013-07-20 08:09:00,72.8,71.9,29.97,WSW,248,0.0,0.0,97,0.00,,---,0.00,VWS V14.01,2013-07-20 13:09:00,
2013-07-20 08:14:00,73.1,72.2,29.97,WSW,248,0.0,0.0,97,0.00,,---,0.00,VWS V14.01,2013-07-20 13:14:00,
2013-07-20 08:19:00,73.5,72.6,29.97,ENE,68,0.0,0.0,97,0.00,,---,0.00,VWS V14.01,2013-07-20 13:19:00,
2013-07-20 08:25:00,73.9,73.0,29.97,West,270,0.0,0.0,97,0.00,,---,0.00,VWS V14.01,2013-07-20 13:25:00,
2013-07-20 08:30:00,74.4,73.2,29.97,West,270,0.0,0.0,96,0.00,,---,0.00,VWS V14.01,2013-07-20 13:30:00,
2013-07-20 08:35:00,74.8,73.6,29.97,West,270,0.0,0.0,96,0.00,,---,0.00,VWS V14.01,2013-07-20 13:35:00,
2013-07-20 08:40:00,75.3,74.1,29.97,SSE,158,0.0,0.0,96,0.00,,---,0.00,VWS V14.01,2013-07-20 13:40:00,
2013-07-20 08:45:00,75.5,74.3,29.97,ESE,112,0.0,0.0,96,0.00,,---,0.00,VWS V14.01,2013-07-20 13:45:00,
2013-07-20 08:50:00,76.6,75.0,29.97,East,90,0.0,0.0,95,0.00,,---,0.00,VWS V14.01,2013-07-20 13:50:00,
2013-07-20 08:55:00,77.3,75.7,29.97,ENE,68,0.0,0.0,95,0.00,,---,0.00,VWS V14.01,2013-07-20 13:55:00,
2013-07-20 09:00:00,78.0,75.8,29.97,South,180,0.0,0.0,93,0.00,,---,0.00,VWS V14.01,2013-07-20 14:00:00,
2013-07-20 09:05:00,78.4,75.8,29.97,WNW,292,0.0,0.0,92,0.00,,---,0.00,VWS V14.01,2013-07-20 14:05:00,
2013-07-20 09:10:00,78.7,74.9,29.97,North,0,0.0,0.0,88,0.00,,---,0.00,VWS V14.01,2013-07-20 14:10:00,
2013-07-20 09:15:00,79.4,75.9,29.97,NNW,338,0.0,0.0,89,0.00,,---,0.00,VWS V14.01,2013-07-20 14:15:00,
2013-07-20 09:20:00,79.6,74.7,29.97,NNW,338,0.0,0.0,85,0.00,,---,0.00,VWS V14.01,2013-07-20 14:20:00,
2013-07-20 09:25:00,80.0,74.0,29.97,NW,315,0.0,0.0,82,0.00,,---,0.00,VWS V14.01,2013-07-20 14:25:00,
2013-07-20 09:30:00,80.9,75.2,29.97,SE,135,0.0,0.0,83,0.00,,---,0.00,VWS V14.01,2013-07-20 14:30:00,
2013-07-20 09:35:00,81.6,75.6,29.97,ESE,112,0.0,0.0,82,0.00,,---,0.00,VWS V14.01,2013-07-20 14:35:00,
2013-07-20 09:41:00,82.0,75.6,29.97,ESE,112,0.0,0.0,81,0.00,,---,0.00,VWS V14.01,2013-07-20 14:41:00,
2013-07-20 09:46:00,82.3,74.0,29.97,NW,315,0.0,0.0,76,0.00,,---,0.00,VWS V14.01,2013-07-20 14:46:00,
2013-07-20 09:51:00,82.5,74.2,29.97,NNW,338,0.0,0.0,76,0.00,,---,0.00,VWS V14.01,2013-07-20 14:51:00,
2013-07-20 09:56:00,83.0,75.5,29.97,SSE,158,0.0,1.6,78,0.00,,---,0.00,VWS V14.01,2013-07-20 14:56:00,
2013-07-20 10:01:00,83.4,75.4,29.94,SE,135,0.0,0.0,77,0.00,,---,0.00,VWS V14.01,2013-07-20 15:01:00,
2013-07-20 10:06:00,83.6,75.2,29.94,NNE,22,2.5,2.5,76,0.00,,---,0.00,VWS V14.01,2013-07-20 15:06:00,
2013-07-20 10:11:00,83.8,74.6,29.94,SW,225,2.2,2.2,74,0.00,,---,0.00,VWS V14.01,2013-07-20 15:11:00,
2013-07-20 10:16:00,83.9,74.8,29.97,ESE,112,1.6,1.6,74,0.00,,---,0.00,VWS V14.01,2013-07-20 15:16:00,
2013-07-20 10:21:00,84.1,73.3,29.97,WSW,248,0.0,0.0,70,0.00,,---,0.00,VWS V14.01,2013-07-20 15:21:00,
2013-07-20 10:26:00,84.3,73.9,29.97,WSW,248,0.0,0.0,71,0.00,,---,0.00,VWS V14.01,2013-07-20 15:26:00,
2013-07-20 10:31:00,84.7,74.2,29.97,ESE,112,0.9,2.0,71,0.00,,---,0.00,VWS V14.01,2013-07-20 15:31:00,
2013-07-20 10:36:00,84.7,73.4,29.97,SSW,202,0.0,0.0,69,0.00,,---,0.00,VWS V14.01,2013-07-20 15:36:00,
2013-07-20 10:41:00,85.2,73.4,29.97,SSE,158,2.5,2.9,68,0.00,,---,0.00,VWS V14.01,2013-07-20 15:41:00,
2013-07-20 10:46:00,85.4,73.6,29.97,ESE,112,0.0,0.0,68,0.00,,---,0.00,VWS V14.01,2013-07-20 15:46:00,
2013-07-20 10:51:00,85.6,74.2,29.97,North,0,0.0,0.0,69,0.00,,---,0.00,VWS V14.01,2013-07-20 15:51:00,
2013-07-20 10:56:00,85.6,74.7,29.97,NE,45,1.1,1.1,70,0.00,,---,0.00,VWS V14.01,2013-07-20 15:56:00,
2013-07-20 11:01:00,85.4,72.7,29.97,ESE,112,0.0,0.0,66,0.00,,---,0.00,VWS V14.01,2013-07-20 16:01:00,
2013-07-20 11:06:00,85.7,72.6,29.97,NW,315,1.6,1.6,65,0.00,,---,0.00,VWS V14.01,2013-07-20 16:06:00,
2013-07-20 11:11:00,85.9,73.7,29.97,ENE,68,0.0,0.0,67,0.00,,---,0.00,VWS V14.01,2013-07-20 16:11:00,
2013-07-20 11:16:00,85.9,72.3,29.97,NW,315,0.0,0.0,64,0.00,,---,0.00,VWS V14.01,2013-07-20 16:16:00,
2013-07-20 11:21:00,85.9,72.3,29.97,NW,315,0.0,0.0,64,0.00,,---,0.00,VWS V14.01,2013-07-20 16:21:00,
2013-07-20 11:26:00,85.7,71.7,29.97,NNW,338,0.0,0.0,63,0.00,,---,0.00,VWS V14.01,2013-07-20 16:26:00,
2013-07-20 11:31:00,85.9,71.9,29.97,WNW,292,0.0,0.0,63,0.00,,---,0.00,VWS V14.01,2013-07-20 16:31:00,
2013-07-20 11:36:00,86.1,72.0,29.97,NNW,338,0.0,0.0,63,0.00,,---,0.00,VWS V14.01,2013-07-20 16:36:00,
2013-07-20 11:41:00,86.6,73.5,29.97,NE,45,0.0,0.0,65,0.00,,---,0.00,VWS V14.01,2013-07-20 16:41:00,
2013-07-20 11:46:00,85.9,71.9,29.97,NE,45,0.0,0.0,63,0.00,,---,0.00,VWS V14.01,2013-07-20 16:46:00,
2013-07-20 11:51:00,86.1,72.5,29.97,ESE,112,0.0,1.6,64,0.00,,---,0.00,VWS V14.01,2013-07-20 16:51:00,
2013-07-20 11:56:00,86.3,71.3,29.97,North,0,0.0,0.0,61,0.00,,---,0.00,VWS V14.01,2013-07-20 16:56:00,
2013-07-20 12:01:00,86.8,73.2,29.97,NE,45,0.0,0.0,64,0.00,,---,0.00,VWS V14.01,2013-07-20 17:01:00,
2013-07-20 12:07:00,86.8,72.7,29.97,ESE,112,1.6,1.6,63,0.00,,---,0.00,VWS V14.01,2013-07-20 17:07:00,
2013-07-20 12:12:00,85.9,72.8,29.97,ESE,112,0.0,0.0,65,0.00,,---,0.00,VWS V14.01,2013-07-20 17:12:00,
2013-07-20 12:17:00,84.8,72.2,29.97,ESE,112,0.0,0.0,66,0.00,,---,0.00,VWS V14.01,2013-07-20 17:17:00,
2013-07-20 12:22:00,84.7,72.5,29.97,NE,45,0.0,0.0,67,0.00,,---,0.00,VWS V14.01,2013-07-20 17:22:00,
2013-07-20 12:27:00,84.5,72.8,29.97,NE,45,0.0,0.0,68,0.00,,---,0.00,VWS V14.01,2013-07-20 17:27:00,
2013-07-20 12:32:00,84.7,73.4,29.94,NNE,22,0.0,1.1,69,0.00,,---,0.00,VWS V14.01,2013-07-20 17:32:00,
2013-07-20 12:37:00,85.7,74.0,29.94,NE,45,0.0,0.9,68,0.00,,---,0.00,VWS V14.01,2013-07-20 17:37:00,
2013-07-20 12:42:00,86.5,73.8,29.94,ENE,68,0.0,0.0,66,0.00,,---,0.00,VWS V14.01,2013-07-20 17:42:00,
2013-07-20 12:47:00,87.2,73.5,29.94,WNW,292,2.0,2.0,64,0.00,,---,0.00,VWS V14.01,2013-07-20 17:47:00,
2013-07-20 12:52:00,87.0,71.4,29.94,NE,45,0.0,0.0,60,0.00,,---,0.00,VWS V14.01,2013-07-20 17:52:00,
2013-07-20 12:57:00,86.8,72.7,29.94,NE,45,0.0,0.0,63,0.00,,---,0.00,VWS V14.01,2013-07-20 17:57:00,
2013-07-20 13:02:00,86.8,72.7,29.94,SSE,158,0.0,0.0,63,0.00,,---,0.00,VWS V14.01,2013-07-20 18:02:00,
2013-07-20 13:07:00,86.8,72.7,29.94,NNE,22,1.1,1.1,63,0.00,,---,0.00,VWS V14.01,2013-07-20 18:07:00,
2013-07-20 13:12:00,87.2,72.1,29.94,ENE,68,0.0,0.0,61,0.00,,---,0.00,VWS V14.01,2013-07-20 18:12:00,
2013-07-20 13:17:00,87.5,72.9,29.94,SSE,158,2.5,2.5,62,0.00,,---,0.00,VWS V14.01,2013-07-20 18:17:00,
2013-07-20 13:22:00,87.0,71.4,29.94,SSW,202,0.9,0.9,60,0.00,,---,0.00,VWS V14.01,2013-07-20 18:22:00,
2013-07-20 13:27:00,87.0,71.9,29.94,ENE,68,0.0,0.0,61,0.00,,---,0.00,VWS V14.01,2013-07-20 18:27:00,
2013-07-20 13:32:00,86.3,72.2,29.94,ENE,68,0.0,0.0,63,0.00,,---,0.00,VWS V14.01,2013-07-20 18:32:00,
2013-07-20 13:37:00,85.7,72.2,29.94,SSE,158,0.0,0.0,64,0.00,,---,0.00,VWS V14.01,2013-07-20 18:37:00,
2013-07-20 13:42:00,85.4,72.3,29.94,ESE,112,0.0,0.0,65,0.00,,---,0.00,VWS V14.01,2013-07-20 18:42:00,
2013-07-20 13:47:00,84.8,72.7,29.94,South,180,0.0,0.0,67,0.00,,---,0.00,VWS V14.01,2013-07-20 18:47:00,
2013-07-20 13:52:00,85.6,73.3,29.94,SSW,202,0.0,0.0,67,0.00,,---,0.00,VWS V14.01,2013-07-20 18:52:00,
2013-07-20 13:58:00,85.6,73.8,29.94,WSW,248,0.0,0.0,68,0.00,,---,0.00,VWS V14.01,2013-07-20 18:58:00,
2013-07-20 14:03:00,85.7,73.5,29.94,West,270,0.0,0.0,67,0.00,,---,0.00,VWS V14.01,2013-07-20 19:03:00,
2013-07-20 14:08:00,85.9,72.8,29.94,WSW,248,0.0,0.0,65,0.00,,---,0.00,VWS V14.01,2013-07-20 19:08:00,
2013-07-20 14:13:00,86.6,73.0,29.91,WSW,248,0.0,0.0,64,0.00,,---,0.00,VWS V14.01,2013-07-20 19:13:00,
2013-07-20 14:18:00,87.5,73.4,29.91,SW,225,0.0,0.0,63,0.00,,---,0.00,VWS V14.01,2013-07-20 19:18:00,
2013-07-20 14:23:00,88.4,72.8,29.91,SSE,158,2.2,2.2,60,0.00,,---,0.00,VWS V14.01,2013-07-20 19:23:00,
2013-07-20 14:28:00,88.8,71.6,29.91,West,270,0.0,1.3,57,0.00,,---,0.00,VWS V14.01,2013-07-20 19:28:00,
2013-07-20 14:33:00,88.8,70.6,29.91,WNW,292,0.0,0.0,55,0.00,,---,0.00,VWS V14.01,2013-07-20 19:33:00,
2013-07-20 14:38:00,89.0,70.2,29.91,SSW,202,0.0,0.0,54,0.00,,---,0.00,VWS V14.01,2013-07-20 19:38:00,
2013-07-20 14:43:00,89.7,70.9,29.91,WNW,292,0.0,0.0,54,0.00,,---,0.00,VWS V14.01,2013-07-20 19:43:00,
2013-07-20 14:48:00,89.7,70.9,29.91,West,270,0.0,0.0,54,0.00,,---,0.00,VWS V14.01,2013-07-20 19:48:00,
2013-07-20 14:53:00,90.1,72.8,29.91,ENE,68,0.0,0.0,57,0.00,,---,0.00,VWS V14.01,2013-07-20 19:53:00,
2013-07-20 14:59:00,90.2,70.8,29.91,WSW,248,2.0,2.0,53,0.00,,---,0.00,VWS V14.01,2013-07-20 19:59:00,
2013-07-20 15:04:00,90.2,70.8,29.91,North,0,0.0,0.0,53,0.00,,---,0.00,VWS V14.01,2013-07-20 20:04:00,
2013-07-20 15:09:00,89.9,69.9,29.91,SSE,158,2.5,2.5,52,0.00,,---,0.00,VWS V14.01,2013-07-20 20:09:00,
2013-07-20 15:14:00,89.9,71.6,29.91,SE,135,0.9,1.6,55,0.00,,---,0.00,VWS V14.01,2013-07-20 20:14:00,
2013-07-20 15:19:00,89.9,72.1,29.91,SSW,202,0.0,0.0,56,0.00,,---,0.00,VWS V14.01,2013-07-20 20:19:00,
2013-07-20 15:24:00,89.3,71.1,29.91,NNE,22,0.0,0.0,55,0.00,,---,0.00,VWS V14.01,2013-07-20 20:24:00,
2013-07-20 15:29:00,88.6,70.4,29.91,North,0,0.0,0.0,55,0.00,,---,0.00,VWS V14.01,2013-07-20 20:29:00,
2013-07-20 15:34:00,87.9,70.3,29.91,North,0,0.0,0.0,56,0.00,,---,0.00,VWS V14.01,2013-07-20 20:34:00,
2013-07-20 15:39:00,87.7,70.1,29.91,North,0,0.0,0.0,56,0.00,,---,0.00,VWS V14.01,2013-07-20 20:39:00,
2013-07-20 15:44:00,87.0,70.9,29.88,NE,45,0.0,0.0,59,0.00,,---,0.00,VWS V14.01,2013-07-20 20:44:00,
2013-07-20 15:49:00,86.6,71.1,29.88,ENE,68,0.0,0.0,60,0.00,,---,0.00,VWS V14.01,2013-07-20 20:49:00,
2013-07-20 15:54:00,87.0,70.9,29.88,ENE,68,0.0,0.0,59,0.00,,---,0.00,VWS V14.01,2013-07-20 20:54:00,
2013-07-20 15:59:00,87.4,71.8,29.88,SE,135,0.0,0.0,60,0.00,,---,0.00,VWS V14.01,2013-07-20 20:59:00,
2013-07-20 16:04:00,87.7,73.1,29.88,SE,135,0.0,0.0,62,0.00,,---,0.00,VWS V14.01,2013-07-20 21:04:00,
2013-07-20 16:10:00,87.2,72.1,29.88,ESE,112,0.0,0.0,61,0.00,,---,0.00,VWS V14.01,2013-07-20 21:10:00,
2013-07-20 16:15:00,86.8,71.8,29.88,ENE,68,0.0,0.0,61,0.00,,---,0.00,VWS V14.01,2013-07-20 21:15:00,
2013-07-20 16:20:00,86.1,71.6,29.88,ENE,68,0.0,0.0,62,0.00,,---,0.00,VWS V14.01,2013-07-20 21:20:00,
2013-07-20 16:25:00,86.1,71.6,29.88,ESE,112,1.6,2.9,62,0.00,,---,0.00,VWS V14.01,2013-07-20 21:25:00,
2013-07-20 16:30:00,86.1,72.0,29.88,SE,135,0.0,0.0,63,0.00,,---,0.00,VWS V14.01,2013-07-20 21:30:00,
2013-07-20 16:35:00,86.3,72.2,29.88,ENE,68,0.0,0.0,63,0.00,,---,0.00,VWS V14.01,2013-07-20 21:35:00,
2013-07-20 16:40:00,86.6,72.6,29.88,ESE,112,0.0,0.0,63,0.00,,---,0.00,VWS V14.01,2013-07-20 21:40:00,
2013-07-20 16:45:00,86.8,72.7,29.88,ESE,112,0.0,0.0,63,0.00,,---,0.00,VWS V14.01,2013-07-20 21:45:00,
2013-07-20 16:50:00,86.8,71.3,29.88,SSE,158,0.0,0.0,60,0.00,,---,0.00,VWS V14.01,2013-07-20 21:50:00,
2013-07-20 16:55:00,86.5,71.9,29.88,SE,135,0.0,0.0,62,0.00,,---,0.00,VWS V14.01,2013-07-20 21:55:00,
2013-07-20 17:00:00,86.1,72.0,29.88,SE,135,0.0,0.0,63,0.00,,---,0.00,VWS V14.01,2013-07-20 22:00:00,
2013-07-20 17:05:00,85.6,72.0,29.88,SE,135,0.0,0.0,64,0.00,,---,0.00,VWS V14.01,2013-07-20 22:05:00,
2013-07-20 17:11:00,85.0,71.9,29.88,SE,135,0.0,0.0,65,0.00,,---,0.00,VWS V14.01,2013-07-20 22:11:00,
2013-07-20 17:16:00,84.8,72.7,29.88,SE,135,0.0,0.0,67,0.00,,---,0.00,VWS V14.01,2013-07-20 22:16:00,
2013-07-20 17:21:00,84.3,72.6,29.88,SE,135,0.0,0.0,68,0.00,,---,0.00,VWS V14.01,2013-07-20 22:21:00,
2013-07-20 17:26:00,83.9,72.7,29.88,SE,135,0.0,0.0,69,0.00,,---,0.00,VWS V14.01,2013-07-20 22:26:00,
2013-07-20 17:31:00,83.8,73.4,29.88,SSE,158,0.0,0.0,71,0.00,,---,0.00,VWS V14.01,2013-07-20 22:31:00,
2013-07-20 17:36:00,83.4,73.0,29.88,SSE,158,0.0,0.0,71,0.00,,---,0.00,VWS V14.01,2013-07-20 22:36:00,
2013-07-20 17:41:00,83.0,73.1,29.88,SSE,158,0.0,0.0,72,0.00,,---,0.00,VWS V14.01,2013-07-20 22:41:00,
2013-07-20 17:46:00,82.7,73.2,29.88,ESE,112,0.0,0.0,73,0.00,,---,0.00,VWS V14.01,2013-07-20 22:46:00,
2013-07-20 17:51:00,82.3,72.8,29.88,ESE,112,0.0,0.0,73,0.00,,---,0.00,VWS V14.01,2013-07-20 22:51:00,
2013-07-20 17:56:00,82.1,73.0,29.88,ESE,112,0.0,0.0,74,0.00,,---,0.00,VWS V14.01,2013-07-20 22:56:00,
2013-07-20 18:01:00,82.0,73.3,29.88,ESE,112,0.0,0.0,75,0.00,,---,0.00,VWS V14.01,2013-07-20 23:01:00,
2013-07-20 18:06:00,81.8,73.5,29.88,SSE,158,0.0,0.0,76,0.00,,---,0.00,VWS V14.01,2013-07-20 23:06:00,
2013-07-20 18:12:00,81.4,73.1,29.88,SSW,202,0.0,0.0,76,0.00,,---,0.00,VWS V14.01,2013-07-20 23:12:00,
2013-07-20 18:17:00,81.2,73.0,29.88,SSW,202,0.0,0.0,76,0.00,,---,0.00,VWS V14.01,2013-07-20 23:17:00,
2013-07-20 18:22:00,81.2,73.0,29.88,SSW,202,0.0,0.0,76,0.00,,---,0.00,VWS V14.01,2013-07-20 23:22:00,
2013-07-20 18:27:00,81.1,72.8,29.88,SW,225,0.0,0.0,76,0.00,,---,0.00,VWS V14.01,2013-07-20 23:27:00,
2013-07-20 18:32:00,80.9,72.6,29.88,SW,225,0.0,0.0,76,0.00,,---,0.00,VWS V14.01,2013-07-20 23:32:00,
2013-07-20 18:37:00,80.9,73.0,29.88,WNW,292,0.0,0.0,77,0.00,,---,0.00,VWS V14.01,2013-07-20 23:37:00,
2013-07-20 18:42:00,80.9,72.6,29.88,WSW,248,0.0,0.0,76,0.00,,---,0.00,VWS V14.01,2013-07-20 23:42:00,
2013-07-20 18:47:00,80.9,72.6,29.88,West,270,0.0,0.0,76,0.00,,---,0.00,VWS V14.01,2013-07-20 23:47:00,
2013-07-20 18:52:00,80.9,72.2,29.88,WNW,292,0.0,0.0,75,0.00,,---,0.00,VWS V14.01,2013-07-20 23:52:00,
2013-07-20 18:57:00,81.1,71.2,29.88,West,270,0.0,0.0,72,0.00,,---,0.00,VWS V14.01,2013-07-20 23:57:00,
2013-07-20 19:02:00,80.9,71.0,29.88,WNW,292,0.0,0.0,72,0.00,,---,0.00,VWS V14.01,2013-07-21 00:02:00,
2013-07-20 19:07:00,80.7,70.8,29.88,WNW,292,0.0,0.0,72,0.00,,---,0.00,VWS V14.01,2013-07-21 00:07:00,
2013-07-20 19:12:00,80.5,70.3,29.88,WNW,292,0.0,0.0,71,0.00,,---,0.00,VWS V14.01,2013-07-21 00:12:00,
2013-07-20 19:17:00,80.3,70.5,29.88,SSW,202,0.0,0.0,72,0.00,,---,0.00,VWS V14.01,2013-07-21 00:17:00,
2013-07-20 19:22:00,80.2,70.3,29.88,SW,225,0.0,0.0,72,0.00,,---,0.00,VWS V14.01,2013-07-21 00:22:00,
2013-07-20 19:27:00,80.0,70.2,29.88,WSW,248,0.0,0.0,72,0.00,,---,0.00,VWS V14.01,2013-07-21 00:27:00,
2013-07-20 19:32:00,79.8,70.0,29.88,WSW,248,0.0,0.0,72,0.00,,---,0.00,VWS V14.01,2013-07-21 00:32:00,
2013-07-20 19:37:00,79.6,70.2,29.88,WSW,248,0.0,0.0,73,0.00,,---,0.00,VWS V14.01,2013-07-21 00:37:00,
2013-07-20 19:42:00,79.4,70.0,29.88,SSW,202,0.0,0.0,73,0.00,,---,0.00,VWS V14.01,2013-07-21 00:42:00,
2013-07-20 19:47:00,79.3,70.3,29.88,SSW,202,0.0,0.0,74,0.00,,---,0.00,VWS V14.01,2013-07-21 00:47:00,
2013-07-20 19:53:00,79.1,70.5,29.88,SSW,202,0.0,0.0,75,0.00,,---,0.00,VWS V14.01,2013-07-21 00:53:00,
2013-07-20 19:58:00,78.7,70.5,29.88,SSW,202,0.0,0.0,76,0.00,,---,0.00,VWS V14.01,2013-07-21 00:58:00,
2013-07-20 20:03:00,78.5,70.3,29.88,WSW,248,0.0,0.0,76,0.00,,---,0.00,VWS V14.01,2013-07-21 01:03:00,
2013-07-20 20:08:00,78.4,70.2,29.88,WSW,248,0.0,0.0,76,0.00,,---,0.00,VWS V14.01,2013-07-21 01:08:00,
2013-07-20 20:13:00,78.2,70.0,29.88,WSW,248,0.0,0.0,76,0.00,,---,0.00,VWS V14.01,2013-07-21 01:13:00,
2013-07-20 20:18:00,78.0,69.8,29.88,WSW,248,0.0,0.0,76,0.00,,---,0.00,VWS V14.01,2013-07-21 01:18:00,
2013-07-20 20:23:00,77.8,70.0,29.88,SW,225,0.0,0.0,77,0.00,,---,0.00,VWS V14.01,2013-07-21 01:23:00,
2013-07-20 20:28:00,77.6,69.9,29.88,SW,225,0.0,0.0,77,0.00,,---,0.00,VWS V14.01,2013-07-21 01:28:00,
2013-07-20 20:33:00,77.5,69.7,29.88,SW,225,0.0,0.0,77,0.00,,---,0.00,VWS V14.01,2013-07-21 01:33:00,
2013-07-20 20:38:00,77.3,69.5,29.88,SW,225,0.0,0.0,77,0.00,,---,0.00,VWS V14.01,2013-07-21 01:38:00,
2013-07-20 20:44:00,77.3,69.9,29.91,ESE,112,0.0,0.0,78,0.00,,---,0.00,VWS V14.01,2013-07-21 01:44:00,
2013-07-20 20:49:00,77.3,69.9,29.91,ESE,112,0.0,0.0,78,0.00,,---,0.00,VWS V14.01,2013-07-21 01:49:00,
2013-07-20 20:54:00,77.3,69.9,29.91,SSE,158,0.0,0.0,78,0.00,,---,0.00,VWS V14.01,2013-07-21 01:54:00,
2013-07-20 20:59:00,77.3,69.9,29.91,SSE,158,0.0,0.0,78,0.00,,---,0.00,VWS V14.01,2013-07-21 01:59:00,
2013-07-20 21:04:00,77.3,69.9,29.91,ENE,68,0.0,0.0,78,0.00,,---,0.00,VWS V14.01,2013-07-21 02:04:00,
2013-07-20 21:09:00,77.3,69.9,29.91,ENE,68,0.0,0.0,78,0.00,,---,0.00,VWS V14.01,2013-07-21 02:09:00,
2013-07-20 21:14:00,77.3,69.9,29.91,SE,135,0.0,0.0,78,0.00,,---,0.00,VWS V14.01,2013-07-21 02:14:00,
2013-07-20 21:19:00,76.0,70.1,29.91,SE,135,0.0,0.0,82,0.00,,---,0.00,VWS V14.01,2013-07-21 02:19:00,
2013-07-20 21:24:00,76.0,70.1,29.91,SE,135,0.0,0.0,82,0.00,,---,0.00,VWS V14.01,2013-07-21 02:24:00,
2013-07-20 21:29:00,75.8,70.3,29.91,ESE,112,0.0,0.0,83,0.00,,---,0.00,VWS V14.01,2013-07-21 02:29:00,
2013-07-20 21:34:00,75.7,70.1,29.91,ESE,112,0.0,0.0,83,0.00,,---,0.00,VWS V14.01,2013-07-21 02:34:00,
2013-07-20 21:39:00,75.5,70.0,29.91,ESE,112,0.0,0.0,83,0.00,,---,0.00,VWS V14.01,2013-07-21 02:39:00,
2013-07-20 21:45:00,75.3,70.1,29.94,ESE,112,0.0,0.0,84,0.00,,---,0.00,VWS V14.01,2013-07-21 02:45:00,
2013-07-20 21:50:00,75.3,70.1,29.94,SSE,158,0.0,0.0,84,0.00,,---,0.00,VWS V14.01,2013-07-21 02:50:00,
2013-07-20 21:55:00,75.3,70.5,29.94,SSE,158,0.0,0.0,85,0.00,,---,0.00,VWS V14.01,2013-07-21 02:55:00,
2013-07-20 22:00:00,75.1,70.3,29.94,SSW,202,0.0,0.0,85,0.00,,---,0.00,VWS V14.01,2013-07-21 03:00:00,
2013-07-20 22:05:00,75.1,70.3,29.94,SSW,202,0.0,0.0,85,0.00,,---,0.00,VWS V14.01,2013-07-21 03:05:00,
2013-07-20 22:10:00,75.1,70.3,29.94,SSW,202,0.0,0.0,85,0.00,,---,0.00,VWS V14.01,2013-07-21 03:10:00,
2013-07-20 22:15:00,74.9,70.1,29.94,SSW,202,0.0,0.0,85,0.00,,---,0.00,VWS V14.01,2013-07-21 03:15:00,
2013-07-20 22:20:00,74.9,70.5,29.94,SSW,202,0.0,0.0,86,0.00,,---,0.00,VWS V14.01,2013-07-21 03:20:00,
2013-07-20 22:26:00,74.8,70.3,29.94,SSW,202,0.0,0.0,86,0.00,,---,0.00,VWS V14.01,2013-07-21 03:26:00,
2013-07-20 22:31:00,74.8,70.3,29.94,SSW,202,0.0,0.0,86,0.00,,---,0.00,VWS V14.01,2013-07-21 03:31:00,
2013-07-20 22:36:00,74.6,70.5,29.94,SSW,202,0.0,0.0,87,0.00,,---,0.00,VWS V14.01,2013-07-21 03:36:00,
2013-07-20 22:41:00,74.6,70.5,29.94,SSW,202,0.0,0.0,87,0.00,,---,0.00,VWS V14.01,2013-07-21 03:41:00,
2013-07-20 22:46:00,74.6,70.5,29.94,SSW,202,0.0,0.0,87,0.00,,---,0.00,VWS V14.01,2013-07-21 03:46:00,
2013-07-20 22:51:00,74.6,70.5,29.94,SSW,202,0.0,0.0,87,0.00,,---,0.00,VWS V14.01,2013-07-21 03:51:00,
2013-07-20 22:56:00,74.4,70.3,29.94,SSW,202,0.0,0.0,87,0.00,,---,0.00,VWS V14.01,2013-07-21 03:56:00,
2013-07-20 23:01:00,74.4,70.6,29.94,SSW,202,0.0,0.0,88,0.00,,---,0.00,VWS V14.01,2013-07-21 04:01:00,
2013-07-20 23:03:00,74.4,70.6,29.94,SSW,202,0.0,0.0,88,0.00,,---,0.00,VWS V14.01,2013-07-21 04:03:00,
2013-07-20 23:08:00,74.2,70.4,29.94,SSW,202,0.0,0.0,88,0.00,,---,0.00,VWS V14.01,2013-07-21 04:08:00,
2013-07-20 23:13:00,74.2,70.4,29.94,SSW,202,0.0,0.0,88,0.00,,---,0.00,VWS V14.01,2013-07-21 04:13:00,
2013-07-20 23:18:00,74.2,70.4,29.94,SSW,202,0.0,0.0,88,0.00,,---,0.00,VWS V14.01,2013-07-21 04:18:00,
2013-07-20 23:23:00,74.0,70.6,29.94,SSW,202,0.0,0.0,89,0.00,,---,0.00,VWS V14.01,2013-07-21 04:23:00,
2013-07-20 23:28:00,74.0,70.6,29.94,SSW,202,0.0,0.0,89,0.00,,---,0.00,VWS V14.01,2013-07-21 04:28:00,
2013-07-20 23:33:00,73.9,70.4,29.94,SSW,202,0.0,0.0,89,0.00,,---,0.00,VWS V14.01,2013-07-21 04:33:00,
2013-07-20 23:38:00,73.9,70.4,29.94,SSW,202,0.0,0.0,89,0.00,,---,0.00,VWS V14.01,2013-07-21 04:38:00,
2013-07-20 23:43:00,73.9,70.4,29.97,SSW,202,0.0,0.0,89,0.00,,---,0.00,VWS V14.01,2013-07-21 04:43:00,
2013-07-20 23:48:00,73.7,70.2,29.97,SSW,202,0.0,0.0,89,0.00,,---,0.00,VWS V14.01,2013-07-21 04:48:00,
2013-07-20 23:53:00,73.7,70.2,29.97,SSW,202,0.0,0.0,89,0.00,,---,0.00,VWS V14.01,2013-07-21 04:53:00,
2013-07-20 23:58:00,73.5,70.1,29.94,SSW,202,0.0,0.0,89,0.00,,---,0.00,VWS V14.01,2013-07-21 04:58:00,